Vertical_Velocity
-1 -1 0 1 1 0 0 -0 -1 -0 0 0 -0 -0 -2 -1 -1 -0 -2 -2 -1 -0 0 -2 -5 -3 -1 2 -1 2 1 7 -1 4 3 7 8 1 1 -1 2 2 -1 -1 -6 -2 2
-1 -1 -0 1 1 1 -1 1 1 0 -0 -1 0 -1 -1 -1 -3 -1 -1 -0 2 1 -2 -2 -2 -1 -5 -4 -2 -4 2 5 1 -1 -3 -4 -6 -3 -1 -0 1 4 -1 -2 -1 -2 -1
-1 -0 0 -0 -1 -0 -1 1 2 1 -1 -1 1 0 -1 -1 -2 -1 1 -1 2 -2 0 -3 -1 -0 -2 -0 -4 0 -3 2 4 1 -6 -2 -5 3 -1 -1 -0 -8 7 1 1 -1 -0
-0 -1 0 1 -2 -1 -0 0 1 1 0 -0 0 0 -1 -2 -2 -1 0 -0 0 1 -0 2 1 -2 -2 -3 -2 -1 -1 0 4 -2 1 3 7 -6 -3 -7 -1 8 1 -1 -3 0 -1
1 -0 0 -0 -1 0 -0 -0 -0 1 0 -1 0 -0 -2 -1 -2 -2 -1 3 -1 -0 1 -5 -1 1 -4 1 -2 -1 6 -4 0 -0 6 1 -10 -2 5 4 -0 1 -1 0 2 0 -1
-1 0 1 1 1 -0 -0 -1 -0 0 -0 -1 -1 1 -0 -1 -1 -1 -2 -0 1 -2 -2 -1 7 1 -7 -5 -1 -0 -1 0 -2 4 0 -2 -1 1 -0 -2 -3 -1 -0 0 -1 -1 -1
0 -1 -1 -1 1 -0 -0 -0 -1 -0 -0 -1 -2 -0 -0 1 -0 -1 -0 -6 -4 -2 -2 -3 -4 -2 -2 2 -3 -2 0 -1 -0 -1 -1 -1 -3 -1 -1 1 1 -0 0 -1 -0 0 -5
-1 -0 0 -1 -0 -0 1 0 -0 -0 -0 -0 -1 -1 -1 2 2 -0 -1 -3 -2 -2 -3 -0 -3 -1 0 2 2 -2 -3 -2 -2 -0 -1 -8 -1 -1 1 -0 2 -0 -0 1 -0 0 -6
-1 -1 -0 1 -2 -0 0 1 -0 -0 -0 0 -0 -1 -2 -1 1 2 0 -0 -1 -1 -2 -2 0 -1 1 -5 -2 -2 1 -3 -0 -1 -0 -2 -5 0 1 -1 -1 -1 -4 -1 -7 0 -1
-0 -1 -0 -0 -0 -0 -0 0 1 -1 1 0 -0 -0 -2 -2 2 0 0 1 -1 0 -7 -9 -2 -1 -2 -1 -3 1 -3 2 1 -3 -1 -1 -4 1 -0 0 0 -1 1 0 -1 -4 -5
-0 0 0 -1 -0 -1 -0 -0 0 -1 0 1 -1 -0 -1 -2 -1 -0 1 2 0 -1 -12 -18 -3 -1 0 -1 -1 -2 -2 -1 1 -0 -6 -7 -1 -1 -2 -0 1 -2 1 -1 -1 -1 -5
-0 1 0 -1 -1 -1 -1 -0 -1 1 -0 0 -0 -0 -2 -1 -1 -2 -0 -0 0 -25 -14 -6 0 -2 -1 1 -0 2 0 2 4 0 -2 -0 -1 -1 -3 -2 -0 -2 -3 -3 -2 -2 -5
1 1 1 -0 -1 -1 -1 -1 -1 0 -0 1 0 -1 -0 -1 -1 -1 -2 -1 -16 -13 -12 -9 -2 -0 -0 -1 -0 -0 -2 -4 -3 -8 -3 -4 0 -1 0 -3 -4 -4 -6 -4 -7 -6 -7
-0 1 1 1 -0 -1 -2 -1 -1 -1 -0 0 0 -1 2 -0 -1 -2 -2 -12 -13 -5 0 -1 1 -1 0 -1 -1 -0 -0 -2 -3 -1 -2 -2 -16 -2 -4 -1 -1 -0 -4 -7 -4 -2 -4
0 -1 -0 1 1 -1 -1 -2 -1 -2 0 1 -1 -0 -0 1 -1 -1 -1 -7 -8 0 2 0 -5 -1 -2 -1 1 -2 -0 -0 1 -0 -5 -2 -3 -0 0 -0 -3 -2 -4 -1 -2 -1 -5
-1 -1 -0 -1 1 -1 -1 -2 -2 -1 -2 -0 -1 1 -1 -1 3 -3 -9 -2 -0 1 0 -1 0 -1 0 -1 -3 -3 -1 -1 -1 1 0 -2 -4 -0 -2 -0 -1 -4 -2 -3 -4 -3 -1
1 -1 -1 -0 -0 0 -1 -1 -3 1 -4 -2 -2 0 1 1 -1 1 -6 -2 0 -0 -1 -1 0 -1 1 1 2 1 1 -1 -0 -3 1 0 -4 -8 -5 -1 0 -4 -1 -3 -7 -4 -3
-1 0 1 -2 0 0 -1 -1 -3 -3 0 1 -3 -5 -1 2 -6 1 -1 -2 -1 -0 0 -1 1 1 1 -0 -0 -0 1 1 1 2 -0 1 -2 -1 -1 -1 -1 -0 -0 -1 -7 -5 -2
1 -0 0 1 -1 -1 0 -1 -0 -3 -4 -1 -1 -2 -0 -0 -4 -1 -1 0 -1 1 0 -1 0 -0 -0 0 -1 -0 -0 -1 -1 -0 0 -1 -2 -3 -13 -9 -3 -0 -0 -0 -1 -3 -2
3 -2 1 1 -0 -2 0 -4 -1 -1 -1 -0 1 -7 1 0 2 -3 -0 -1 1 0 -0 -0 -1 1 0 0 -0 -1 0 -0 0 -1 -1 -0 -0 -6 -7 -8 -2 -0 -0 0 -3 -2 -2
3 -1 1 1 -0 -2 0 -5 -3 -0 -1 4 -2 -2 0 -4 -4 -0 -0 -0 0 1 0 1 1 -0 -0 -0 -1 0 -1 0 0 -0 0 -4 -1 -0 -1 -1 1 -1 -0 -0 -0 -3 -5
3 -1 -0 2 0 1 -4 -4 -2 -0 2 -2 1 -3 1 -0 0 0 -0 -3 -0 -1 -4 1 -0 -1 -0 -0 -3 -1 0 -0 -0 -3 0 -0 -3 -0 -1 0 0 0 -0 0 -0 -0 1
1 0 -1 1 -0 -2 1 -1 -3 -4 -3 -1 -1 -0 -2 -0 0 -2 -3 -1 -1 -0 -2 -0 -2 -0 1 -2 -1 -1 -0 0 -0 -0 -0 0 -1 -2 -3 0 -0 -1 -4 -1 -1 -0 -6
2 -2 -1 -3 -1 -2 1 2 -1 -2 -4 -2 1 2 -2 -4 -0 -2 0 -0 -0 -0 1 0 0 0 1 1 1 2 1 1 1 -0 -0 -0 -0 -1 -2 -4 -7 -10 0 -2 -2 -1 0
2 -2 -1 -2 -2 1 0 -3 3 -2 -6 -2 -2 5 -2 -1 1 -1 -0 -0 0 -0 -1 1 0 -1 -2 -1 -3 -3 -3 -2 0 0 -0 -0 -1 -1 -4 -0 -10 0 -2 -1 -1 -5 -1
-0 3 -5 -1 -0 2 -3 2 -1 1 -1 -5 -3 1 1 -4 -4 -1 0 1 -1 -0 -2 -0 1 2 0 -1 -1 -0 -2 -2 0 -0 -0 -0 -1 -4 0 -1 -1 -2 -1 1 -1 -8 -0
4 1 -0 -0 1 2 1 -3 -1 -1 4 -2 -2 -5 2 0 -1 -1 -2 -3 0 1 -1 1 -1 -0 -0 -0 -0 -1 -3 -0 -1 -0 -1 0 0 -2 -0 -1 -9 -2 -1 -1 -2 -17 -1
5 7 1 5 4 0 0 -4 -6 3 3 1 -5 -6 0 -0 -2 -1 0 -1 1 0 -2 0 -4 -1 -1 -1 -1 -2 0 -2 -1 -2 -4 -4 -4 -1 0 1 -9 -1 1 -6 -10 -0 -2
9 7 6 -4 5 5 4 5 3 4 -4 2 -0 -1 -2 -2 -4 -1 -1 -3 0 2 1 2 -1 -1 -3 -2 -1 -0 -0 0 -2 -3 -1 -5 -9 -6 -11 -13 -3 -4 -1 -1 -1 -1 -2
Height
1552 1550 1548 1546 1544 1542 1540 1538 1535 1533 1532 1532 1531 1530 1529 1528 1527 1525 1522 1520 1517 1514 1511 1509 1507 1505 1503 1503 1503 1500 1498 1497 1496 1496 1497 1498 1498 1500 1501 1501 1500 1498 1496 1498 1498 1497 1495
1553 1552 1549 1547 1545 1543 1541 1538 1536 1533 1532 1532 1531 1529 1529 1528 1526 1525 1523 1520 1517 1514 1511 1509 1507 1506 1504 1505 1503 1501 1499 1497 1497 1496 1497 1498 1499 1499 1502 1502 1503 1498 1498 1496 1498 1496 1495
1554 1553 1551 1548 1546 1544 1542 1539 1535 1533 1532 1531 1529 1528 1527 1527 1526 1524 1522 1520 1518 1515 1513 1510 1508 1506 1506 1507 1504 1502 1500 1498 1497 1497 1497 1498 1498 1498 1504 1503 1500 1498 1503 1499 1496 1494 1495
1555 1553 1551 1549 1547 1545 1542 1539 1535 1532 1531 1530 1528 1527 1526 1525 1524 1523 1522 1520 1518 1516 1514 1512 1509 1508 1507 1506 1504 1502 1501 1500 1498 1498 1498 1498 1497 1497 1501 1502 1506 1509 1498 1502 1493 1492 1494
1556 1554 1552 1550 1548 1546 1543 1539 1535 1532 1530 1529 1527 1525 1523 1523 1523 1522 1521 1520 1518 1516 1514 1513 1511 1509 1509 1507 1505 1503 1502 1501 1500 1500 1499 1500 1497 1498 1501 1500 1497 1494 1505 1500 1496 1492 1494
1556 1554 1553 1551 1549 1546 1544 1540 1536 1532 1530 1528 1526 1523 1521 1521 1521 1521 1520 1519 1517 1517 1515 1513 1513 1514 1511 1509 1506 1504 1503 1502 1502 1501 1501 1501 1500 1500 1496 1498 1509 1498 1500 1495 1498 1496 1495
1556 1555 1553 1551 1549 1547 1544 1541 1537 1533 1530 1527 1525 1522 1519 1518 1519 1519 1519 1518 1520 1518 1516 1516 1516 1514 1513 1511 1508 1506 1504 1503 1502 1502 1502 1501 1504 1507 1500 1494 1491 1492 1495 1496 1493 1492 1498
1555 1554 1553 1551 1549 1546 1544 1541 1537 1533 1529 1526 1524 1521 1518 1517 1517 1517 1518 1518 1518 1519 1517 1516 1515 1514 1513 1511 1509 1508 1506 1505 1503 1505 1501 1504 1506 1498 1495 1494 1493 1493 1495 1498 1494 1492 1496
1556 1554 1552 1551 1549 1547 1544 1541 1538 1534 1530 1526 1523 1521 1518 1516 1515 1517 1517 1517 1516 1516 1517 1516 1515 1514 1513 1512 1511 1510 1508 1507 1505 1505 1504 1508 1504 1498 1498 1498 1495 1490 1495 1499 1499 1495 1498
1556 1555 1553 1550 1548 1547 1545 1541 1538 1534 1530 1525 1522 1521 1518 1516 1518 1516 1516 1517 1516 1516 1526 1521 1515 1515 1513 1511 1511 1509 1508 1509 1506 1509 1508 1510 1501 1499 1497 1497 1498 1495 1494 1492 1496 1506 1522
1555 1554 1552 1551 1549 1547 1544 1542 1538 1534 1530 1525 1522 1520 1518 1515 1516 1516 1518 1516 1516 1517 1554 1519 1515 1514 1512 1513 1512 1510 1509 1508 1507 1506 1507 1510 1506 1503 1501 1503 1501 1497 1494 1491 1497 1505 1512
1554 1553 1551 1549 1548 1546 1544 1541 1538 1534 1529 1525 1521 1520 1517 1516 1516 1517 1516 1516 1517 1533 1553 1521 1515 1514 1513 1511 1511 1510 1509 1508 1507 1505 1505 1506 1504 1506 1505 1502 1500 1497 1492 1497 1502 1513 1535
1552 1551 1550 1548 1547 1545 1544 1541 1538 1534 1529 1525 1521 1519 1517 1515 1516 1516 1516 1517 1531 1547 1526 1526 1521 1515 1514 1513 1511 1510 1512 1514 1517 1524 1521 1509 1506 1504 1502 1500 1497 1498 1509 1540 1537 1538 1532
1551 1550 1549 1547 1546 1544 1542 1540 1537 1533 1529 1525 1521 1519 1518 1515 1515 1515 1516 1520 1541 1533 1525 1521 1518 1517 1516 1513 1512 1511 1514 1520 1515 1515 1530 1527 1523 1510 1506 1508 1509 1509 1510 1535 1528 1532 1532
1549 1548 1547 1546 1545 1543 1541 1538 1536 1532 1528 1524 1521 1520 1518 1516 1515 1515 1517 1538 1547 1530 1527 1526 1520 1520 1519 1515 1515 1512 1518 1521 1518 1516 1521 1525 1515 1509 1509 1508 1509 1508 1518 1507 1516 1521 1539
1547 1546 1545 1544 1543 1542 1540 1537 1534 1531 1528 1524 1521 1519 1518 1516 1515 1515 1519 1534 1530 1529 1528 1526 1526 1520 1524 1521 1518 1515 1519 1520 1519 1516 1515 1515 1519 1510 1508 1508 1508 1510 1508 1515 1519 1521 1518
1544 1543 1543 1542 1542 1540 1539 1537 1534 1530 1527 1524 1521 1520 1520 1518 1517 1516 1533 1533 1528 1528 1528 1529 1527 1524 1523 1523 1521 1520 1521 1521 1520 1517 1514 1515 1516 1516 1511 1513 1513 1512 1508 1510 1515 1526 1534
1540 1540 1540 1540 1539 1538 1537 1535 1533 1530 1526 1523 1521 1522 1521 1519 1520 1521 1528 1525 1527 1527 1526 1526 1526 1525 1524 1521 1522 1520 1521 1522 1520 1518 1518 1517 1518 1525 1510 1511 1511 1511 1510 1511 1528 1518 1527
1536 1536 1537 1537 1537 1535 1534 1533 1532 1529 1527 1523 1521 1522 1521 1520 1527 1529 1526 1524 1524 1524 1525 1525 1524 1524 1522 1523 1523 1519 1518 1519 1520 1519 1520 1518 1519 1537 1521 1519 1513 1511 1508 1507 1513 1523 1523
1532 1533 1533 1533 1534 1534 1533 1531 1529 1528 1527 1525 1523 1524 1521 1521 1521 1522 1525 1524 1523 1522 1524 1524 1524 1523 1522 1521 1520 1520 1518 1518 1517 1517 1518 1519 1518 1520 1526 1517 1514 1510 1507 1508 1514 1538 1518
1528 1529 1530 1530 1530 1531 1530 1529 1528 1527 1526 1526 1523 1524 1523 1525 1522 1521 1523 1522 1522 1521 1521 1522 1522 1522 1522 1523 1522 1518 1517 1517 1518 1517 1517 1517 1521 1522 1515 1513 1510 1510 1509 1509 1514 1514 1518
1524 1525 1526 1527 1528 1528 1527 1527 1526 1525 1524 1525 1523 1523 1524 1522 1521 1521 1521 1522 1520 1520 1518 1519 1520 1519 1519 1520 1519 1521 1520 1520 1520 1517 1516 1516 1520 1515 1516 1510 1512 1514 1512 1512 1512 1509 1508
1520 1521 1522 1524 1524 1525 1524 1524 1524 1524 1523 1522 1522 1521 1521 1521 1520 1521 1521 1517 1518 1519 1518 1517 1516 1518 1518 1517 1518 1518 1518 1518 1518 1518 1518 1517 1519 1524 1519 1513 1513 1511 1502 1504 1502 1499 1499
1515 1516 1518 1520 1521 1521 1522 1521 1521 1522 1522 1522 1521 1520 1520 1522 1520 1518 1517 1517 1517 1519 1519 1518 1518 1518 1518 1517 1517 1516 1516 1516 1516 1517 1517 1519 1518 1525 1531 1517 1521 1494 1494 1494 1496 1493 1494
1508 1510 1512 1515 1516 1517 1518 1519 1519 1519 1520 1521 1520 1520 1517 1520 1520 1518 1517 1517 1516 1516 1519 1517 1517 1518 1518 1518 1519 1518 1520 1518 1516 1517 1517 1518 1521 1525 1529 1526 1506 1491 1492 1492 1492 1491 1490
1500 1503 1505 1509 1511 1512 1513 1515 1516 1516 1518 1519 1519 1519 1517 1516 1518 1518 1516 1516 1516 1517 1518 1517 1517 1516 1516 1517 1519 1518 1517 1507 1516 1519 1518 1519 1520 1524 1528 1523 1508 1491 1492 1491 1490 1499 1486
1492 1494 1498 1502 1504 1506 1508 1510 1512 1514 1514 1516 1516 1518 1517 1515 1513 1514 1515 1514 1514 1514 1516 1516 1516 1516 1516 1519 1522 1522 1517 1509 1512 1512 1521 1523 1523 1525 1526 1522 1506 1490 1490 1492 1497 1498 1486
1485 1487 1491 1495 1497 1500 1501 1504 1507 1510 1510 1513 1513 1515 1515 1513 1511 1511 1512 1512 1512 1512 1514 1515 1517 1515 1517 1519 1521 1518 1516 1511 1511 1507 1512 1513 1522 1521 1520 1517 1512 1486 1491 1494 1486 1483 1483
1484 1485 1487 1490 1493 1494 1497 1498 1502 1502 1505 1508 1510 1511 1512 1511 1509 1508 1508 1508 1509 1509 1511 1510 1509 1508 1510 1515 1516 1514 1513 1513 1512 1511 1501 1508 1501 1502 1503 1495 1483 1483 1481 1481 1481 1481 1482